Flag for Germany Weather past 2 weeks in Lahr, Baden-Württemberg, Germany

Now
66 °F

Overcast.


Feels Like: 66 °F
Forecast: 58 / 76 °F
Wind: 1 mph from Northeast

Location: Lahr

Current Time: Jul 30, 2014 at 10:17:19 PM

Latest Report: Jul 30, 2014 at 10:00 PM


Visibility: 3 mi

Pressure: 29.95 "Hg

Humidity: 100%

Dew point: 66 °F

Location of LahrLocation

Historic Weather in Lahr — Graph

°F

Lahr temperature yesterday

Maximum temperature yesterday: 66 °F (at 6:00 PM)
Minimum temperature yesterday: 60 °F (at 5:00 AM)
Average temperature yesterday: 63 °F

Past Weeks' High & Low Weather Summary

 TemperatureHumidityPressure
High94 °F (Jul 18, 7:00 PM)100% (Jul 21, 1:00 AM)30.19 "Hg (Jul 21, 1:00 AM)
Low57 °F (Jul 16, 6:00 AM)29% (Jul 18, 6:00 PM)29.77 "Hg (Jul 28, 5:00 PM)
Average70 °F80%29.94 "Hg
* Reported Jul 15 9:00 PM — Jul 30 9:00 PM, Lahr, Weather by CustomWeather, © 2014

Note: Actual official high and low records may vary slightly from our data, if they occured in-between our weather recording intervals... More about our weather records

Advertising

Lahr weather history for previous 24 hours

 ConditionsComfort  
Time TempWeatherWind HumidityBarometerVisibility
9:00 PM
Jul 30
66 °FLight rain. Overcast.2 mph99%29.93 "Hg2 mi
8:00 PM66 °FSprinkles. Overcast.3 mph98%29.91 "Hg6 mi
7:00 PM67 °FRain showers. Low clouds.3 mph95%29.90 "Hg3 mi
6:00 PM69 °FLow clouds.2 mph94%29.89 "Hg6 mi
5:00 PM67 °FRain showers. Low clouds.2 mph98%29.89 "Hg3 mi
4:00 PM68 °FLight rain. Overcast.3 mph95%29.88 "Hg6 mi
3:00 PM68 °FRain showers. Overcast.1 mph93%29.87 "Hg3 mi
2:00 PM68 °FLight rain. Overcast.2 mph92%29.85 "Hg16 mi
1:00 PM66 °FLight rain. Low clouds.3 mph98%29.85 "Hg7 mi
12:00 PM64 °FRain. Low clouds.3 mph99%29.85 "Hg5 mi
11:00 AM63 °FRain. Low clouds.3 mph100%29.83 "Hg1 mi
10:00 AM63 °FRain. Low clouds.2 mph99%29.83 "Hg4 mi
9:00 AM62 °FRain. Low clouds.2 mph98%29.82 "Hg2 mi
8:00 AM62 °FLow clouds.5 mph98%29.81 "Hg14 mi
7:00 AM62 °FRain. Low clouds.3 mph98%29.80 "Hg13 mi
6:00 AM62 °FLow clouds.5 mph98%29.80 "Hg28 mi
5:00 AM62 °FLight rain. Overcast.5 mph100%29.79 "Hg6 mi
4:00 AM63 °FOvercast.5 mph98%29.79 "Hg43 mi
3:00 AM63 °FOvercast.5 mph98%29.80 "Hg43 mi
2:00 AM63 °FLight freezing rain. Low clouds.5 mph99%29.80 "Hg10 mi
1:00 AM63 °FDrizzle. Low clouds.3 mph100%29.81 "Hg31 mi
12:00 AM63 °FRain. Overcast.5 mph100%29.81 "Hg2 mi
11:00 PM
Jul 29
64 °FLight rain. Low clouds.3 mph99%29.81 "Hg8 mi
10:00 PM64 °FLight freezing rain. Overcast.3 mph99%29.81 "Hg3 mi
Weather by CustomWeather, © 2014

See weather overviewHow to use our weather pages